CAPE
1636 1492 1380 1403 1531 1663 1806 1724 1764 2038 2478 2657 2093 2076 2471 2444 2887 3015 2237 2541 2623 2363 1699 1568 1368 1224 1165 1235 1426 1608 1650 1694 1773 1944 2055 2258 2475 2640 2604 2442 2334 2284 2227 2228 2206 2121 2197 2173 2041 1842 1767 1849 1673 1664 1571 1712 1540 1696 1715 1624 1845 1840 1887 1906 2032 2061 2095 2059 2052 2158 2135 2224 2164 2126 2112 2186 2308 2050 2064 2196 2249 2044 1982 1902 1837
1384 1637 1439 1167 1228 1617 1675 1620 1793 2202 2219 2289 2718 2816 2465 2580 2570 2838 2676 2940 2615 2535 3136 1259 1100 1053 1074 1037 1519 1614 1638 1644 1683 1805 2027 2226 2312 2794 2712 2622 2491 2417 2258 2234 2240 2267 2309 2252 2136 1996 1843 1836 1882 1987 1737 1763 1866 1875 1886 1923 1999 2019 1979 1894 2018 2045 2052 2178 2295 2259 2191 2216 2190 2169 2216 2357 2284 2074 2082 2209 2127 2011 2008 1901 1786
1527 1098 988 1335 1236 1452 1610 1936 2287 2158 2226 2358 2261 2844 2473 2364 2799 2550 2590 2528 2338 2779 2696 1275 1076 1022 1342 1063 1130 1546 1443 1423 1495 1672 1810 1973 2157 2536 2927 2748 2593 2436 2274 2356 2206 2265 2230 2239 2247 2131 2016 1930 1887 1895 1877 1943 1983 2052 1996 2080 2165 2184 2138 2095 2081 2174 2337 2330 2302 2244 2264 2349 2313 2280 2284 2295 2264 2082 2088 2240 2217 2069 1960 1813 1748
1416 1005 1234 1412 1175 1100 1395 2121 2265 2090 2526 2169 2534 2670 2602 2590 2740 2879 2411 2679 2967 2514 2429 2246 1131 1074 1005 1148 1184 1404 1558 1480 1422 1561 1688 1787 1988 2314 2553 2659 2675 2536 2522 2432 2489 2396 2351 2382 2132 2174 1935 1976 1901 1905 1951 1889 1931 1999 2128 2196 2234 2321 2349 2303 2334 2222 2251 2376 2386 2292 2310 2280 2324 2314 2308 2275 2102 2126 2180 2257 2169 2067 1962 1831 1764
2179 1528 1333 1187 1390 1669 1946 2357 1838 2456 2830 2639 2605 2528 2903 3031 2794 3010 3414 3442 2843 2537 2753 2013 1100 986 970 931 1162 1339 1493 1512 1488 1560 1551 1603 1770 2067 2250 2443 2534 2656 2630 2596 2660 2570 2541 2497 2423 2272 2214 2116 2188 2122 2100 2000 2061 2117 2171 2264 2281 2323 2312 2118 2177 2229 2290 2380 2386 2414 2228 2217 2221 2218 2189 2215 2174 2194 2222 2223 2122 2026 1957 1899 1750
2741 2070 1862 1564 1624 1521 1537 1769 1899 2236 3008 2793 2964 2782 2727 3036 3572 2868 3603 3505 2946 2734 2028 1577 736 692 599 544 556 755 1137 1393 1441 1327 1308 1396 1558 1926 2023 2240 2301 2372 2587 2777 2712 2668 2654 2602 2576 2444 2440 2392 2368 2303 2328 2319 2230 2234 2320 2417 2276 2213 2304 2476 2432 2419 2409 2384 2408 2396 2334 2235 2204 2206 2235 2153 2180 2143 2195 2246 2198 2064 1764 1492 1529
2684 2326 2886 2047 2002 1855 1748 2174 2113 2565 3161 3435 2802 2347 3169 2798 3460 2919 2818 2146 2238 2540 2377 1540 715 1020 666 1473 1276 1614 1229 471 1229 1263 1388 1452 1658 1727 1704 1995 2003 2135 2359 2424 2995 2779 2789 2776 2742 2758 2668 2693 2661 2664 2665 2661 2566 2486 2469 2554 2659 2751 2619 2519 2726 2733 2724 2740 2769 2786 2769 2786 2783 2565 2446 2350 2431 2414 2398 2445 2306 2177 2125 1995 1560
3060 3108 2616 2403 2476 2453 2841 2936 3074 3617 3451 3328 3652 2888 2608 2708 2492 2387 1877 2186 2720 1930 1850 2088 978 1235 1597 1117 1178 1748 1788 939 872 1245 1540 1665 1685 1633 1635 1741 1800 1818 2244 2044 2266 2634 2952 2938 2965 2916 2948 2894 2892 2900 2906 2865 2764 2742 2794 2766 2776 2866 3102 3029 2733 2842 2908 2927 3005 3010 2987 3048 3089 3128 3127 3100 3076 3142 3144 3060 2948 2825 2632 2673 2456
3084 3014 2073 2179 2832 2640 2574 2846 3427 3614 3562 3440 3601 2884 2654 2510 2137 2766 3093 1797 2421 2125 1615 1126 1440 1276 1508 1393 1385 2251 1755 1345 1137 1120 1340 1676 1804 1834 1777 1777 1986 2644 2325 1766 1858 2041 2836 3215 3181 3193 3104 3090 3103 3067 3056 3027 2984 2974 2909 2960 3109 3035 3042 3086 3075 2939 3000 3126 3166 3247 3252 3283 3391 3346 3252 3278 3396 3500 3517 3435 3360 3147 3004 3082 3016
2768 2981 2687 3008 2845 2434 2506 2908 3632 3642 3503 2923 2584 2550 2837 2550 2511 2934 2718 2508 1500 2047 1566 1352 1547 1112 1175 1246 1276 2345 1496 1558 1754 3855 1208 1307 1582 1752 1912 2025 2371 2565 2371 1940 1899 1761 1954 3005 3506 3380 3364 3339 3303 3268 3321 3309 3280 3123 3193 3248 3178 3226 3324 3322 3277 3362 3387 3381 3428 3467 3516 3559 3541 3548 3593 3600 3594 3623 3722 3713 3668 3598 3416 3315 3338
2999 3156 3254 2968 2729 2566 2671 3009 3600 3576 3405 3060 3025 2456 2399 2915 2550 2820 3849 3056 2454 2854 2209 1444 1963 1260 1138 1345 1528 2091 1634 2019 2438 2130 1253 1378 1245 1513 1584 1984 2319 2606 2685 2372 2147 2137 1880 2150 2534 3010 3226 3615 3542 3538 3489 3533 3567 3537 3442 3393 3435 3536 3490 3554 3698 3676 3714 3753 3801 3842 3873 3862 3845 3822 3809 3831 3822 3913 3906 3894 3801 3712 3490 3562 3611
2469 2616 3018 2670 2667 2706 2747 3118 3202 3259 2558 2632 2512 2368 2215 2844 2651 2976 3892 3987 3774 2402 1934 2253 2360 1933 2584 1742 1702 1600 1572 2352 1085 1320 1758 1447 1475 1770 1413 1385 1824 2106 2500 2594 2490 2525 2203 1843 2004 1893 2162 2590 3518 3882 3877 3922 3906 3931 3878 3817 3775 3746 3714 3778 3851 3804 3931 4021 4041 4148 4167 4111 4090 4034 3995 4025 4046 3956 3921 3892 3879 3790 3657 3567 3608
2971 3058 3100 3625 2691 2416 2452 2784 3131 3308 2836 1985 2102 2611 3285 3229 4176 4279 3348 2655 2521 2426 1992 2418 2331 1648 1715 2478 1465 1690 1955 2378 1183 1448 1505 1491 1327 1349 1405 1469 1472 1405 1494 2096 2622 2754 2536 2055 1898 1929 2080 2013 2265 3603 4173 4025 4261 4122 4321 4358 4152 4154 4092 4108 4152 4208 4108 4181 4234 4321 4230 4155 4133 4119 4144 4164 4139 4110 4076 3971 3868 3762 3755 3661 3674
3005 3050 3077 2591 2468 2476 2587 2680 2883 2938 2967 2255 2362 3438 3674 3955 3617 3116 3627 2341 2088 2385 2151 2408 1720 1824 1390 1303 1408 1248 1759 1419 1432 1386 1425 1206 987 885 1041 1393 1415 1410 1456 1727 2666 2810 2714 2383 2060 2137 2152 2153 2240 2226 2494 2984 3767 4193 4367 4486 4538 4440 4214 4252 4255 4256 4311 4281 4351 4391 4315 4238 4200 4232 4220 4141 3998 3936 3882 3802 3754 3794 3741 3672 3627
3150 3371 2846 2843 2580 2664 2793 2769 2643 3629 3256 2984 2605 3439 3574 3706 2996 3515 2785 2710 2837 2633 1906 2016 1696 2060 2384 1451 1168 1185 1460 1692 1199 1195 1260 962 779 604 949 1084 1239 1163 1140 1178 2273 2650 2914 2816 2775 2504 2403 2602 2815 2728 2406 2443 2647 3595 3756 3854 4010 4442 4498 4518 4427 4445 4451 4469 4380 4224 4108 3960 3917 3844 3896 3954 3928 3942 3883 3775 3706 3664 3638 3567 3593
3198 3378 3072 3007 2984 2866 2929 3070 2803 3346 3063 3316 3255 3476 3553 3520 2748 3159 2996 2887 2741 2202 2375 1788 2016 1729 930 1016 906 1122 661 781 1113 1107 1090 899 678 190 655 850 1134 1024 901 952 857 2032 1956 2138 2597 2677 2860 2979 3033 2850 2591 2594 3097 4061 4480 4308 3891 3754 4026 4493 4363 4093 3978 3964 3994 3966 3817 3737 3783 3805 3820 3875 3861 3794 3773 3731 3714 3675 3626 3555 3499
2967 2996 2791 2937 2840 2804 3088 3362 3270 3350 3810 3915 3493 3316 3206 3648 2618 2925 3044 2746 1822 1267 1657 1372 2027 1707 2408 2374 774 710 874 689 540 836 1000 443 262 49 483 737 665 635 785 976 992 1075 1494 1468 1565 2014 1823 1866 2528 2752 3004 3436 3894 4727 5195 5791 5145 3991 3796 3991 4362 3765 3820 3819 3756 3677 3684 3733 3838 3820 3794 3696 3717 3800 3744 3640 3538 3521 3423 3370 2954
2688 2680 2696 2956 3024 2908 3031 3318 3236 3306 3611 3527 3457 3564 3828 3288 2776 2487 3169 3110 2576 1132 1376 2037 1400 2043 2338 1565 980 827 740 893 694 315 522 1676 59 109 195 17 90 434 813 958 935 988 1292 1251 1304 1265 1662 1936 1890 2083 2160 3424 4641 4874 5513 4963 5571 4878 4385 3900 4144 3929 3566 3483 3422 3537 3778 3844 3769 3680 3631 3622 3752 3628 3497 3336 3304 3088 2831 2522 1861
2730 3027 3136 3369 3009 2885 3059 2998 3481 3424 4912 3529 3503 3040 3213 3058 3071 3107 3846 4065 3378 3973 1260 1117 1594 1488 1607 1505 1539 1230 1377 921 806 3542 225 111 1393 255 249 68 392 762 959 1000 748 639 1282 1530 1666 1470 1502 1815 1768 2087 2471 4509 4792 4640 4757 4498 4679 5068 4596 3899 3796 3465 3202 3281 3564 3723 3650 3618 3690 3628 3470 3486 3541 3430 3203 3206 2954 2439 2199 1798 1444
2753 3028 3227 3328 3025 3059 3299 3394 3545 3226 3877 3582 2964 3012 2876 3001 3245 3368 3613 3578 3218 2095 2715 2014 1167 1831 2623 1720 1729 2230 912 1126 1324 1352 1408 928 364 683 135 64 246 145 708 770 116 191 1000 1408 1477 1482 1432 1780 1988 2514 3801 3351 3276 3439 3866 2975 3542 3874 3678 2899 2722 2669 3125 3525 3682 3410 3570 3690 3591 3504 3445 3409 3319 3108 2866 2493 2178 2069 1826 1596 1180
2627 2767 3016 3261 3524 3014 3334 3630 3328 3416 4163 3661 3573 3020 2876 2557 2585 3011 2229 2472 3894 3835 3972 3097 2125 2383 1410 1895 1965 1984 1596 1515 810 1266 1638 1168 1188 815 83 1 80 138 116 9 10 45 653 986 1194 1456 1687 1978 2765 3514 4129 3738 3119 2336 2415 2642 2961 2692 2804 2753 2810 2976 3279 3354 3194 3428 3706 3517 3547 3556 3369 3163 2784 2589 2329 2087 1845 1524 1186 986 819
2661 2732 2943 3262 3402 3532 3594 3173 2766 2850 4030 3159 3301 2607 3108 3105 3049 3195 2251 2154 5193 2207 2364 2569 3612 2505 2383 2922 1122 2013 1314 1248 703 700 1053 1046 772 1023 1016 63 64 1184 354 18 23 22 5 659 1268 1590 1840 2629 2978 3117 3714 3458 2844 3086 2296 2786 3516 3525 3065 2804 2871 2958 3045 2913 3029 3635 3582 3427 3389 3329 3002 2500 2299 2152 1871 1634 1458 1228 1040 507 374
2773 2948 3229 3368 3224 3714 3566 3178 2575 3039 3753 2833 2849 2676 3449 3079 3090 2977 3172 3095 2515 2586 3050 3147 3389 2754 2133 2110 1965 1967 1584 1306 1005 937 888 1342 1227 1266 1173 1072 27 158 185 436 372 2 0 551 1076 1717 2484 2968 3089 2892 2550 3014 3343 3493 2404 2398 3132 3646 3379 2822 2866 2916 2854 2954 3044 3496 3397 3257 3161 2829 2283 2090 1976 1642 1466 1222 1061 805 427 209 293
2779 2954 3202 3127 2971 3102 3419 3041 2825 3304 3067 2459 2527 2748 2983 2816 2741 3046 3063 2927 2137 3338 3888 2888 2455 2188 1749 2057 1560 1830 1516 1417 1046 907 444 1086 789 888 963 1272 259 64 272 3 0 491 713 655 1689 2477 2562 2383 2850 3874 3309 3329 3482 3306 2591 2675 3329 3700 3916 3350 3340 2784 2852 2908 3086 3146 3016 2891 2594 2031 1863 1746 1357 1206 974 806 593 270 142 151 228
2575 2758 2898 3016 3018 2808 3027 2995 2817 2983 3005 3187 4080 3214 3283 2735 3020 2873 3092 3015 3064 3184 2898 2679 2702 2496 1384 1512 1574 1252 813 802 461 509 631 1828 678 774 1578 1530 1621 1174 272 0 292 109 1328 2063 2464 2726 3364 3369 3344 3530 3808 3218 3240 2880 2609 3033 3554 3884 3978 3263 3031 2862 2883 3020 3082 2981 2893 2667 2026 1540 1546 1270 1039 848 603 364 176 63 88 121 120
2455 2635 2560 2736 3024 3200 3061 3081 2650 2550 3778 3801 4007 4201 4246 3510 2769 2554 3055 2939 3012 3108 2564 2633 2657 2744 2280 1628 2040 1800 1551 1502 670 48 706 774 862 564 1225 1433 2093 2256 1637 69 296 12 1738 2040 1927 1753 2092 3238 3391 3898 3869 3751 3650 2782 2872 3229 3475 3792 3887 2761 3287 2914 2933 3073 2890 2564 2553 2405 1855 1580 1328 1108 938 675 387 153 39 46 46 42 29
2651 2590 2458 2380 2796 3272 3010 3141 3094 3543 4459 4467 4202 4091 4307 3855 4428 4061 3586 3284 3361 3212 2812 2692 2652 2313 2192 2045 1883 1640 1598 1513 1448 2007 1642 1361 1736 1919 1229 950 1280 2626 2467 1468 443 222 991 1812 2290 2493 2020 1992 3691 4269 3288 3552 2913 2722 3283 3278 3327 3793 3726 2708 2910 2941 2863 2820 2620 2015 2165 2064 1732 1432 1166 969 754 560 252 77 8 1 0 0 0
3091 2512 2950 2711 2624 2974 3270 3389 3697 3910 3938 4300 4285 3986 3996 3991 4053 4354 2831 4006 3052 3598 2777 2609 2420 2629 2094 1952 3330 2249 1574 1994 2027 1889 2281 2908 2434 2140 2570 1492 991 1703 2646 2650 2202 1402 1815 2242 2653 3056 2828 2909 3115 3975 4191 2674 2875 2963 3886 3207 3256 3958 3697 2887 2896 2934 2966 2591 2251 1865 1738 1720 1484 1360 1095 795 519 260 44 7 1 0 0 0 0
2696 2762 2957 2503 2781 3109 2861 3422 3641 3867 3738 3789 3822 4035 3800 3812 4048 4253 3483 3498 3272 3320 3206 3129 3590 3322 2545 1791 1620 1896 2154 2114 1478 1653 3488 2480 2788 2162 2291 2066 2395 2126 2636 1847 3240 2261 2014 2126 2576 2909 3453 3523 3020 3041 3614 3067 2814 2968 3588 3726 3480 3987 3817 3302 2998 3081 3091 2837 2577 2390 1550 1364 1108 945 688 428 124 74 162 48 0 0 0 0 0
2135 1998 1861 2525 2700 3710 2708 2911 3534 3603 3556 3783 3758 3984 3942 3680 3718 3976 4043 3374 3586 3832 3677 3574 3361 3111 3157 2735 1673 1648 1633 1424 1294 1251 2900 2540 2040 2084 2365 3748 2861 2313 2301 1946 2521 2757 2116 2140 2407 3071 3520 4075 3474 3264 3685 3454 3067 2946 3951 4128 3837 4028 3833 3559 3354 3265 3177 2989 2778 2673 2284 1423 1139 903 584 350 196 333 318 292 34 0 0 0 0
1638 1513 1518 2261 2941 2830 2490 2686 3119 3384 3372 3399 3540 3737 4134 4024 3783 3773 3968 3987 4015 3935 3910 3661 3420 3234 2985 2800 2611 1666 1531 1782 1732 2052 2787 3115 2234 2497 2940 4634 3478 2578 2828 2921 1673 2812 2688 2646 2466 2384 2581 2738 3389 3010 3359 3664 3127 2854 3481 4112 3919 3968 3866 3672 3526 3420 3352 3086 2890 2836 2598 1850 1284 1121 947 682 429 388 394 399 145 0 0 0 0
1367 1699 1644 1776 2575 2384 2872 2666 2692 2793 3024 3176 3168 3343 3928 3875 3791 3867 3766 4043 3880 4139 4335 4088 3363 2914 3080 2891 2622 2900 2956 2530 2191 2430 3278 2683 1847 1978 1824 1734 3721 2186 3098 3635 2722 2807 2980 2841 2851 2874 2543 1988 1844 2220 3300 3250 2973 2809 3034 4285 4303 3952 3786 3651 3499 3370 3469 3254 2948 2900 2727 2146 1584 1218 1126 999 754 501 446 378 363 0 0 0 0
1353 2192 1610 1804 2037 2064 2224 2303 2162 2470 2465 2607 3058 2985 3508 3493 3367 3617 3541 3707 3714 3561 3893 3679 3710 3342 2933 2645 2695 2778 2520 2242 2485 2526 2254 2421 2454 1899 2461 2837 2502 2066 1739 2224 2123 2078 2154 3180 3171 2847 2694 2661 2554 2067 1394 2363 3455 3085 3062 4218 4265 4035 3654 3504 3442 3279 3460 3327 3014 2935 2756 2313 1928 1470 1338 1157 900 654 495 412 373 308 172 0 0
1362 1523 1506 1864 1766 1950 1944 1958 1806 1889 2161 2028 2240 2750 2856 3302 3118 3364 3379 3606 3567 3491 3589 3368 3099 2912 3548 3133 3119 3378 2956 2152 2441 2554 2471 2233 2065 2198 1922 1783 1774 2274 2822 2092 2166 2043 1916 2228 2386 2641 3303 2963 2632 3226 3505 2643 2740 3860 3466 3954 3834 3625 3418 3384 3271 3387 3532 3359 3031 2991 2785 2356 2108 1852 1694 1657 1158 693 515 433 392 378 346 67 0
1196 1016 1378 1410 1684 1771 1824 1860 1721 1715 2017 1924 1954 2591 2539 2890 2897 2802 2629 2795 3481 3372 3382 3375 3262 3100 2638 3078 3389 3224 3250 2896 2503 2332 2331 2265 2127 1920 1793 1779 1550 1560 1792 2292 2256 2319 2262 2333 2937 3251 2901 3082 3432 2978 3006 3260 3259 3264 2922 2661 3665 3511 3641 3414 3434 3600 3729 3430 3046 3020 2758 2364 2167 2010 1914 1750 1673 1378 697 607 462 364 399 5 0
1118 1015 833 937 1051 1608 1628 1690 1668 1542 2006 2083 1943 1997 2562 2493 2711 2589 2468 2322 2272 2981 3224 3209 3099 2972 2936 2721 2872 3278 3142 2954 2823 2549 2206 2116 1960 1904 2012 2076 1715 1561 1464 1647 2051 1935 2115 2177 2613 2926 3231 3450 3305 3470 3592 3342 3104 2939 3002 3051 2895 3164 3821 3849 3600 3655 3724 3321 2988 2920 2692 2504 2368 2286 2124 1851 1776 1646 1330 970 809 391 370 384 0
951 1072 920 593 510 1358 1494 1408 1550 1332 1778 1963 1761 1654 2016 2372 2438 2424 2356 2417 2402 2069 2246 2470 3210 2736 2605 2538 2534 2649 2732 2793 2704 2720 2446 2175 2005 1938 1816 1630 1965 1823 2171 2169 2297 2254 1942 2365 2686 3332 3512 3564 3849 3877 3810 3632 3372 3018 3093 3584 3536 3295 3171 3870 3559 3640 3630 3141 3027 2835 2748 2757 2666 2629 2320 1988 1844 1707 1466 1235 1017 683 363 424 11
373 446 985 864 641 926 1417 1320 1490 1382 1286 1761 1544 1319 1270 1846 2352 2364 2274 2111 2154 2324 1995 1976 2129 2401 2463 2378 2195 2218 2265 2241 2340 2480 2493 2334 2145 1994 1807 1670 1667 1932 1687 1605 2129 2350 2561 2550 2630 2507 3276 3829 4076 3893 3433 3083 2910 2799 3034 3067 2858 2644 2602 3550 3700 3512 3311 3206 3213 3164 3137 2918 2881 2826 2327 2189 2012 1726 1486 1375 1152 843 432 427 391
539 319 318 952 956 875 1176 1258 1181 1556 1280 1378 1496 1248 1098 1095 1541 2167 2181 2056 1863 1743 1996 2035 1894 1844 1865 1974 2080 2009 1951 2010 2054 2016 1984 1959 1910 1899 1876 1642 1432 1582 2194 1924 1474 1320 1726 1987 2372 3106 3288 3229 3130 2918 3001 3111 3506 3669 3579 3254 2810 2834 3206 3664 3379 3232 3406 3498 3365 3250 3094 2860 2933 2735 2443 2361 2198 1814 1510 1446 1350 1013 557 518 662
631 458 244 357 958 1155 1185 1137 1039 1090 1411 1339 1387 1573 1388 1183 1147 1327 1704 1815 1777 1597 1472 1426 1527 1641 1691 1686 1603 1620 1679 1681 1743 1838 1819 1750 1969 2067 1992 1797 1509 1597 1554 1606 1939 2230 2135 2137 2307 2379 2640 2924 3141 3375 3472 3603 3480 2897 3408 3351 3027 2846 2686 2777 3710 3384 3215 3237 3282 3101 2877 2886 2909 2712 2520 2431 2294 1938 1638 1522 1530 1304 932 685 809
816 670 322 222 360 1043 1378 1249 1066 933 1087 1388 1341 1554 1775 1625 1462 1350 1206 1224 1419 1581 1510 1322 1190 1108 1045 1048 1118 1184 1275 2360 1944 1949 1831 1958 1577 1697 1786 1706 1557 1668 1705 1673 1585 1684 2140 2807 3032 3123 3103 3042 3221 3693 3394 2720 2520 1880 1662 2076 2729 2722 2416 2695 3388 4002 3823 3175 2723 2721 2771 2834 2853 2702 2508 2396 2308 2128 1933 1745 1731 1623 1279 940 887
807 763 502 108 283 432 954 1321 1223 1047 977 1139 1554 1368 1594 1782 1623 1418 1350 1169 1010 1093 1278 1319 1192 1045 960 856 797 1778 1950 2012 1708 1476 1477 1932 2518 1695 1498 1627 1540 1558 1750 1848 1830 1654 1472 1486 1732 2086 2288 2298 2230 2070 1887 1793 1666 1698 2063 2345 2884 3045 2960 3202 3079 2975 3394 3216 3129 2870 2602 2365 2349 2336 2280 2291 2368 2270 2228 2143 2028 1785 1500 1107 949
980 648 984 288 32 354 445 957 1173 1097 1014 1070 1209 1300 1274 1464 1603 1534 1334 1144 1043 964 833 862 930 910 832 829 822 1359 2021 2474 2700 1571 1119 1136 1367 2218 2290 2501 2252 1563 1635 1998 2144 2201 2131 2000 1869 1922 1960 1925 1903 1875 1928 1990 2063 2105 2078 2009 2184 2563 2855 2832 2842 2639 3333 3186 2657 2420 2504 2142 2151 2258 2309 2365 2415 2345 2271 2337 2196 2058 1721 1213 950
1525 988 686 698 787 447 238 496 880 1041 1021 1013 1115 1220 1215 1199 1371 1536 1366 1216 973 790 792 730 638 662 693 659 603 420 392 381 244 961 1345 1102 1024 1089 1339 1657 2613 3285 2357 2004 1958 2237 2471 2435 2434 2419 2319 2222 2138 2064 1936 1695 1538 1430 1776 1934 1850 1932 2037 2334 2204 1921 2176 2947 2236 2726 2543 2362 2052 2243 2409 2486 2388 2327 2450 2505 2369 2134 1886 1270 930
1388 1552 907 738 784 800 991 168 417 746 910 959 998 1112 1209 1177 1187 1249 1289 1238 1069 779 258 310 327 338 399 421 376 271 187 438 931 711 715 1083 1022 846 934 1017 1106 1938 2970 2939 2553 2323 2157 2266 2183 2115 2214 2226 2148 2120 2033 2070 2073 2006 1817 1620 1335 1149 1097 1051 1008 852 882 2370 2516 2182 2289 2692 2803 2787 2495 2337 2359 2542 2613 2444 2427 2236 1910 1352 947
1575 1344 1348 938 819 744 909 1259 959 318 670 784 902 966 1017 1090 1107 1090 1136 1102 999 852 415 107 146 169 139 188 256 273 188 166 125 45 127 890 1110 1015 899 848 844 1122 1354 1369 1775 2304 2588 2540 2439 2259 2200 2167 2138 2024 2014 1956 1877 1784 1729 1618 1399 1241 1207 1072 907 988 1366 4200 3090 3093 3086 2767 2666 2854 2790 2845 2905 2916 2604 2428 2423 2224 2024 1433 964
1737 1532 1402 1217 1095 932 944 1135 1438 1527 542 636 204 621 655 831 878 1006 1013 978 906 786 534 147 11 9 35 87 76 82 103 131 109 157 32 54 899 1292 1098 831 715 730 828 998 1077 1022 1065 1566 2127 2361 2369 2445 2510 2465 2360 2222 2284 2201 2001 1797 1544 1298 1184 1220 1781 2386 2744 3221 3752 3251 2725 2205 1657 1619 1784 2177 2500 2614 2462 2398 2314 2115 1839 1249 930
1496 1551 1512 1359 1210 1043 1022 1240 1620 1662 1721 1324 1173 810 759 737 650 604 809 845 856 747 555 350 153 309 170 26 43 50 31 52 338 435 585 311 290 1085 1436 1324 1087 906 866 947 988 1005 935 822 843 963 1092 1235 1505 1770 1926 2012 2125 2271 2310 2251 2145 2204 2167 2047 1811 1838 1943 1968 2095 2132 1831 1579 1496 1407 1457 1642 1801 2108 2073 2035 1939 1705 1394 911 803
1470 1492 1390 1339 1252 1296 1479 1892 1930 1778 1710 1640 1504 1397 1454 1672 1598 1373 1133 866 624 654 489 474 460 467 493 512 519 490 460 371 367 79 54 565 544 894 1440 1612 1613 1460 1308 1276 1278 1290 1241 1167 1038 914 817 780 889 890 800 1012 1302 1422 1557 1851 2011 2014 1806 1620 1544 1626 1684 1772 1985 2021 1951 1846 1661 1369 1350 1369 1605 1790 1882 1876 1569 1242 891 682 688
1731 1679 1497 1443 1430 1495 1479 1548 2059 1898 1778 1718 1773 1543 1321 1367 1546 1723 1783 1608 1295 951 666 530 501 507 530 847 1301 582 622 705 1155 1202 975 906 900 930 1213 1810 1915 1884 1797 1711 1756 1618 1533 1513 1470 1404 1550 1698 1599 1434 1265 1094 773 698 1019 1008 953 1982 2393 2414 2259 2134 2120 2068 2065 2146 2106 1747 801 1371 1584 1231 1294 1446 1614 1704 1687 1405 957 739 720
2106 1866 1784 1653 1554 1631 1728 1694 1820 2074 1770 1648 1708 1687 1548 1352 1315 1518 1761 1751 1474 1246 1068 860 698 630 607 1030 2268 2012 1178 767 632 597 1025 1342 1371 1312 1261 1213 1523 1890 2106 2309 2501 2646 2588 2520 2558 2601 2567 2398 2173 1934 1712 1507 1218 775 312 480 650 626 607 734 1087 1303 1245 1169 1181 1123 904 593 110 348 1364 1331 1485 1302 1458 1632 1567 1308 959 767 749
Wind_Speed
14 14 15 14 15 15 15 18 20 21 20 22 20 21 20 20 23 22 24 26 29 29 28 28 24 23 21 22 20 20 20 20 20 20 21 21 22 22 21 21 21 21 21 21 20 20 21 21 21 21 21 21 21 22 22 22 22 22 23 23 24 26 27 28 29 29 30 30 29 30 29 30 31 31 31 31 31 32 32 32 33 33 32 31 30
13 14 14 17 17 16 17 18 20 20 18 22 20 18 19 19 21 24 24 26 26 26 25 24 23 21 19 19 18 18 19 19 19 19 20 21 21 22 21 21 22 22 21 21 21 21 21 22 22 22 22 23 22 23 23 23 23 22 24 25 26 28 29 29 29 30 31 30 30 31 31 31 31 31 31 32 33 33 34 34 34 34 34 34 33
14 14 14 16 19 19 19 19 18 17 18 19 19 18 17 19 21 23 25 24 25 26 24 24 20 19 18 18 18 17 17 18 18 18 19 20 20 20 20 21 21 21 21 21 22 21 22 22 23 23 24 23 24 24 24 24 24 25 26 27 28 29 30 30 30 30 31 31 31 31 31 31 31 31 32 32 33 34 34 34 35 35 36 36 35
13 18 15 16 18 19 19 17 16 17 17 17 19 18 17 20 21 22 24 24 25 25 23 22 18 19 18 17 17 17 17 17 17 18 18 18 18 18 18 19 21 21 21 21 22 23 23 23 24 25 25 25 25 25 25 24 25 27 28 29 30 30 29 30 31 31 31 31 30 31 31 31 31 31 32 33 33 34 34 35 36 36 37 37 37
13 15 13 18 18 21 18 15 16 16 17 16 16 18 18 18 21 22 24 24 23 24 24 21 16 18 17 17 16 16 17 16 16 16 16 17 16 16 17 17 18 20 22 22 23 25 25 25 26 26 26 26 26 26 26 26 28 28 29 31 31 31 31 30 31 31 30 30 30 31 31 31 31 32 32 32 33 34 34 35 36 37 38 38 38
18 19 20 18 21 19 16 16 17 16 14 15 16 16 16 18 20 21 23 22 24 24 20 17 17 16 16 15 14 15 15 15 15 15 15 15 15 15 16 16 18 18 19 23 25 26 27 27 27 28 27 27 26 27 27 29 30 31 31 31 31 31 31 31 31 31 30 30 30 31 31 31 32 32 33 33 33 34 35 36 37 37 38 38 39
18 18 20 20 20 19 18 17 17 17 14 15 15 15 14 18 21 20 20 22 23 23 19 17 14 14 14 12 13 13 13 13 15 14 14 14 14 15 15 16 17 18 18 19 23 27 28 29 29 28 28 27 28 28 29 31 32 32 32 32 32 32 31 31 31 31 30 30 30 31 32 32 33 33 33 33 33 34 34 36 36 37 37 37 38
18 19 19 21 20 18 19 17 17 16 15 16 15 14 16 18 19 18 18 21 20 21 20 18 13 11 11 11 13 14 13 10 12 12 14 13 14 14 15 16 17 17 18 18 20 23 29 29 29 29 28 28 28 29 30 32 33 33 33 32 32 31 31 30 30 30 30 30 30 31 31 33 33 33 34 34 34 34 34 35 36 37 37 37 38
18 18 19 20 18 17 18 17 18 17 15 15 14 15 16 16 18 18 18 19 20 21 18 13 11 11 11 11 13 13 11 12 13 13 12 13 14 14 14 16 17 18 16 18 19 20 25 29 29 29 29 29 28 29 31 32 33 32 32 32 31 31 30 29 30 30 30 30 30 31 31 32 33 33 33 33 34 33 33 34 35 36 36 37 38
17 18 19 19 17 17 18 18 18 18 17 16 16 16 15 15 16 17 17 18 19 18 16 11 12 11 11 11 12 12 13 12 16 14 12 12 14 14 13 15 16 16 17 18 18 18 19 24 29 29 29 28 28 29 30 32 32 32 31 31 30 30 29 28 29 30 30 30 30 30 31 32 32 32 33 33 33 33 33 33 34 35 35 35 37
17 18 17 16 16 16 16 18 18 18 18 19 17 16 15 16 15 15 16 17 17 16 12 13 11 11 9 11 12 11 14 13 14 11 14 12 13 14 11 12 16 16 16 18 17 17 18 19 20 20 22 27 28 29 30 31 31 30 30 29 29 28 28 29 29 29 29 29 29 30 31 31 31 31 32 32 31 31 32 33 34 34 34 34 34
16 16 15 15 15 16 16 16 17 16 16 15 16 16 15 15 15 14 15 16 15 14 12 12 11 8 8 9 11 11 13 13 13 13 14 13 14 13 12 10 14 16 16 17 15 16 17 18 19 20 20 22 27 28 29 30 29 28 28 27 27 27 27 28 28 28 28 28 29 29 29 29 30 30 30 30 29 30 30 31 32 32 32 31 32
14 14 13 13 13 15 14 15 15 14 14 14 15 17 17 15 13 13 11 11 13 12 12 11 9 10 11 11 12 14 13 11 14 14 14 14 14 12 11 9 15 17 15 13 14 16 17 17 18 19 19 18 20 25 28 28 26 26 25 25 25 25 26 26 27 26 27 27 28 27 27 27 27 27 27 28 28 28 28 28 28 29 29 29 30
13 13 12 10 11 12 12 13 14 12 12 13 13 14 15 15 12 11 11 10 11 12 12 9 10 10 10 10 10 13 14 11 14 14 14 15 13 13 9 11 15 16 15 11 14 17 16 15 16 19 18 16 18 18 20 22 23 25 24 23 23 24 25 25 26 26 26 26 26 25 24 23 23 24 24 25 25 26 25 26 26 26 26 27 27
12 11 10 11 11 11 11 12 12 11 11 12 12 12 11 12 10 9 10 11 11 13 13 9 11 11 9 8 9 9 12 12 14 15 14 14 14 13 9 11 14 13 15 11 12 15 15 14 17 18 16 16 17 17 18 19 20 21 22 22 22 23 24 24 24 24 24 24 23 21 19 19 20 21 22 23 23 23 23 23 23 23 24 24 25
11 11 11 11 10 10 11 11 11 11 10 10 11 11 11 11 10 9 8 10 11 14 12 11 11 7 10 10 12 7 9 14 15 14 12 13 13 12 9 10 11 12 13 13 9 14 16 14 17 15 14 15 15 15 16 17 19 20 20 20 21 20 21 21 21 21 21 20 18 16 15 16 18 19 20 20 20 20 20 20 21 21 22 22 22
11 11 11 11 11 11 11 12 10 11 10 10 10 11 12 12 11 9 10 11 14 13 13 12 10 9 9 11 10 8 9 13 13 12 7 8 10 nan 8 9 8 10 12 14 10 13 12 11 12 12 12 13 12 13 14 14 13 12 13 15 17 18 17 17 18 18 18 18 15 13 13 15 16 17 17 18 17 17 18 18 19 19 19 19 18
11 11 12 12 12 12 12 12 12 12 13 12 11 12 14 12 12 11 13 15 14 11 10 11 11 12 11 11 10 9 9 12 8 9 12 8 nan 8 8 nan nan 8 10 12 11 10 11 11 10 11 11 11 12 12 11 8 8 7 7 10 13 13 13 14 15 15 15 14 11 10 10 12 14 15 14 15 14 15 15 16 17 17 17 18 19
11 11 11 12 11 12 13 13 13 13 13 11 11 13 13 13 12 11 14 13 9 10 13 13 11 10 12 14 12 10 9 8 9 9 9 10 8 7 9 nan 8 8 10 13 11 9 10 10 10 11 10 10 11 10 4 5 5 5 5 7 8 8 9 10 12 13 11 8 7 7 9 11 13 12 13 12 13 14 14 15 16 17 18 19 20
9 10 10 10 10 11 12 13 13 12 12 12 12 13 12 12 12 11 11 9 9 8 11 10 10 13 10 10 9 11 9 7 6 6 8 7 7 9 7 nan 7 9 10 12 12 8 10 8 11 11 10 9 6 4 5 3 4 5 6 7 7 7 7 9 9 9 7 5 5 6 9 11 11 12 12 12 13 14 15 16 17 18 18 19 19
7 8 9 9 9 10 11 11 9 10 11 11 12 11 11 9 10 9 9 10 8 10 9 10 8 11 10 10 8 9 10 9 7 4 6 6 8 6 nan nan nan 9 10 nan nan nan 9 10 12 10 9 6 3 3 4 5 5 5 6 8 8 6 7 7 7 6 4 5 6 8 10 10 12 13 13 14 15 16 16 16 17 19 19 18 18
6 6 7 8 7 8 9 9 8 9 8 9 10 9 9 8 8 7 9 8 8 8 9 9 9 10 9 8 7 8 8 7 6 5 5 5 6 8 8 nan nan 8 7 nan nan nan nan 8 9 9 5 3 4 6 6 6 5 5 7 10 9 8 6 6 5 5 5 7 9 10 12 13 14 14 15 16 17 17 17 17 17 18 18 18 19
4 4 4 5 5 5 6 7 7 7 7 6 8 8 7 6 6 7 7 6 7 7 7 7 8 8 8 7 9 8 8 5 7 7 4 3 3 8 8 5 nan 0 5 4 5 nan nan 5 8 7 6 6 5 6 6 7 7 7 10 10 9 8 7 6 5 6 8 9 10 12 15 16 16 16 16 16 17 17 17 17 16 16 17 18 19
3 3 2 3 3 4 4 4 5 5 5 5 5 6 6 4 4 5 5 5 6 5 5 6 8 7 7 8 9 9 9 9 8 4 5 4 3 5 5 8 5 nan 4 nan nan 5 3 3 6 9 8 7 6 6 6 7 7 11 9 10 9 9 7 6 7 8 9 11 12 14 16 17 17 16 15 15 15 16 16 15 15 15 17 18 18
3 2 3 3 3 2 3 3 4 5 5 4 3 3 2 3 3 3 3 3 4 4 3 5 6 6 8 5 7 7 9 9 7 6 4 1 2 2 3 3 3 5 4 nan 2 2 3 5 6 8 8 7 7 8 8 9 8 9 11 9 10 10 9 8 8 9 11 12 14 16 18 18 18 17 16 15 15 14 14 14 14 nan nan 17 18
3 2 4 2 2 3 2 3 3 4 4 3 3 4 2 1 2 2 3 3 2 1 2 4 4 5 4 4 3 5 6 7 8 nan 5 3 4 3 2 3 1 4 4 nan 3 nan 0 2 5 6 7 8 8 8 9 10 9 10 12 10 10 11 11 11 11 11 12 14 16 16 18 19 20 20 18 17 15 15 13 12 nan nan nan nan nan
2 3 3 1 3 1 2 2 2 2 2 2 2 3 2 2 2 1 1 1 1 1 1 3 5 5 4 3 3 2 3 2 6 6 4 3 3 3 3 4 5 4 4 5 6 2 3 1 1 4 6 7 7 9 11 10 11 12 13 12 11 13 13 13 13 14 15 17 16 18 19 20 21 21 19 17 15 14 13 nan nan nan nan nan nan
3 1 3 0 2 1 1 2 2 1 1 2 2 1 1 1 1 2 1 2 0 2 0 2 4 4 3 4 4 2 2 3 3 2 1 3 3 5 6 5 3 4 6 6 7 5 4 3 2 2 4 6 6 7 11 12 12 14 15 13 13 12 14 16 16 18 19 19 19 19 20 21 22 22 20 18 16 15 nan nan nan nan nan nan nan
3 2 2 1 1 1 2 1 2 1 1 1 2 1 1 1 1 2 1 2 1 0 1 2 4 5 5 3 3 3 3 3 3 2 2 4 4 5 6 4 3 5 5 6 5 4 5 6 5 3 1 4 5 5 8 9 11 15 13 14 14 14 16 19 19 20 21 20 19 19 20 21 22 22 21 19 17 nan 17 nan nan nan nan nan nan
2 3 4 1 2 0 1 0 1 2 2 1 0 1 1 1 1 0 1 2 2 1 1 2 3 5 5 5 3 2 3 4 3 3 3 3 3 4 5 5 6 6 3 5 5 5 5 5 6 4 4 3 4 2 6 8 8 11 14 15 15 15 20 21 21 21 22 21 20 20 21 21 21 21 21 21 20 19 20 20 nan nan nan nan nan
4 5 3 4 3 1 1 1 2 2 2 3 2 2 3 2 2 1 1 2 4 4 2 1 2 3 4 4 4 2 3 4 5 7 4 3 3 3 6 7 8 7 6 6 7 6 5 7 7 6 6 4 4 4 6 7 8 9 13 14 14 18 22 21 23 22 22 22 21 20 21 22 22 22 23 22 23 22 22 22 22 nan nan nan nan
5 5 4 3 3 2 3 3 3 3 3 3 3 4 4 3 3 2 2 2 3 3 2 2 1 0 2 3 3 3 4 6 7 7 5 4 2 3 4 6 6 6 7 7 7 5 5 7 7 5 4 5 5 8 8 6 6 7 10 12 14 19 20 19 21 23 23 21 21 21 22 23 24 24 25 24 24 23 23 24 23 nan nan nan nan
6 7 5 4 4 3 3 3 4 4 3 4 4 4 5 4 3 3 3 3 3 1 2 0 0 1 1 0 1 2 4 6 6 6 5 3 3 2 4 6 5 6 7 7 7 7 9 8 9 6 7 8 6 7 5 5 7 7 7 11 15 17 19 19 20 22 23 23 22 23 23 24 25 26 27 27 26 25 24 24 24 21 20 nan nan
8 8 6 6 5 6 4 3 2 4 4 3 4 5 5 5 3 4 5 4 2 1 1 1 2 2 1 1 0 1 2 1 4 5 4 4 3 2 2 2 4 4 6 7 6 6 7 11 11 9 8 8 7 7 8 7 6 8 8 11 13 14 16 19 20 20 24 26 27 28 27 26 27 28 29 29 28 27 24 23 22 20 20 nan nan
9 9 8 7 6 6 5 5 3 2 3 4 3 4 5 5 4 4 5 6 4 1 0 1 2 2 3 1 1 1 2 2 2 2 3 4 4 4 3 3 2 2 4 6 7 5 4 6 7 8 8 9 9 7 7 7 7 9 9 10 14 14 14 16 19 20 25 28 30 30 31 30 29 30 31 30 29 27 25 23 21 20 19 nan nan
10 9 8 7 8 6 5 5 5 3 4 3 3 4 5 5 5 4 5 6 5 4 2 1 1 2 2 3 3 1 1 1 2 2 2 2 3 3 4 3 3 2 4 6 7 5 6 5 8 7 8 9 8 7 8 7 6 6 8 7 8 12 12 13 17 20 23 28 29 30 31 31 30 30 31 31 30 28 25 24 22 21 20 20 nan
13 11 9 9 7 8 5 4 4 4 4 4 3 3 3 5 5 5 4 6 6 5 4 3 2 1 3 3 3 2 2 2 3 3 2 2 3 3 3 2 2 2 4 5 5 6 6 5 5 7 7 7 8 7 6 6 5 6 7 8 10 10 12 12 15 19 23 26 26 27 27 28 28 29 30 30 30 28 26 24 23 21 20 20 nan
14 13 12 10 8 7 7 4 4 3 3 5 5 4 3 4 5 5 5 5 6 6 6 5 4 3 2 2 3 2 2 2 3 3 2 3 2 3 4 5 3 2 2 2 3 5 5 3 4 4 7 5 6 6 4 4 4 4 6 7 10 12 13 15 15 18 19 20 21 22 22 24 26 27 28 29 30 30 28 26 24 22 21 21 22
13 14 13 12 10 8 6 6 5 4 3 3 4 3 3 3 4 5 5 6 5 6 7 6 6 5 3 4 3 3 2 2 3 3 3 3 3 3 3 4 4 3 3 3 3 3 2 2 3 3 3 4 5 4 3 6 7 10 9 8 8 10 10 14 16 15 16 17 18 22 23 25 26 26 27 28 30 31 30 28 26 25 23 22 23
12 11 14 12 12 10 8 7 5 5 5 4 4 4 3 3 4 4 5 6 6 5 5 6 8 8 7 6 5 4 3 4 4 4 4 3 4 4 3 3 2 3 3 3 3 3 3 3 3 3 5 5 8 7 7 8 8 8 8 10 8 8 8 12 17 18 17 18 17 18 20 21 21 23 24 24 26 28 29 27 26 25 24 23 23
14 11 11 14 13 11 10 9 7 6 6 6 6 6 4 3 4 5 4 4 6 6 5 5 6 6 7 8 7 6 5 2 2 2 3 3 6 5 5 6 5 5 5 5 4 5 5 7 6 8 8 7 7 8 7 6 4 4 4 9 9 10 11 11 13 18 20 19 16 17 18 21 21 21 22 21 21 24 24 25 23 24 24 22 23
20 16 11 12 14 12 12 11 9 8 7 7 7 9 8 6 4 4 5 5 5 6 6 6 5 5 5 6 7 4 2 2 3 4 4 4 4 5 6 8 7 7 7 7 6 6 6 5 5 5 5 5 5 5 5 5 4 3 3 5 8 8 12 13 14 16 21 19 17 16 16 19 20 20 20 19 19 22 22 22 21 21 21 23 22
21 23 25 18 nan 14 13 13 12 10 9 9 11 11 10 9 6 5 4 5 7 6 6 7 6 6 6 6 7 5 4 4 6 4 4 4 4 4 5 7 9 10 9 8 7 8 7 5 5 5 4 3 3 5 5 5 6 5 5 8 9 11 12 14 13 15 17 21 16 16 14 18 21 20 20 19 19 21 22 22 24 23 22 22 22
21 21 23 24 24 21 15 11 12 12 11 10 13 13 12 10 8 6 6 5 6 8 8 7 7 8 7 7 9 9 10 8 7 9 6 5 5 4 5 6 8 10 10 11 8 8 8 6 6 5 7 5 4 6 5 6 4 5 7 12 13 14 13 14 16 18 16 18 16 15 12 18 20 19 19 19 19 22 24 26 27 25 22 21 21
22 20 20 22 22 23 22 17 9 12 13 12 12 14 14 13 10 7 7 6 5 5 7 9 9 9 9 9 8 9 9 5 8 11 12 9 4 4 5 6 6 7 8 9 10 9 10 9 8 7 8 7 6 6 9 9 11 10 10 9 11 14 15 16 15 15 12 17 16 13 13 19 22 19 17 17 19 21 23 25 28 27 24 20 20
23 23 23 23 22 21 21 20 16 11 12 15 15 14 15 14 13 11 8 6 6 6 7 8 10 10 10 10 10 10 10 10 10 nan 11 12 11 10 8 7 7 4 3 5 6 6 9 10 11 9 8 12 7 8 9 11 9 8 10 10 12 12 14 15 16 17 16 20 18 16 14 17 21 19 17 16 19 21 23 26 31 30 26 22 19
27 26 24 23 23 23 22 21 21 16 14 14 17 17 16 16 15 15 11 9 8 8 8 9 nan nan nan nan nan nan 11 12 12 11 nan nan 13 12 11 10 9 9 8 9 10 11 11 11 10 9 9 11 10 9 10 13 13 13 16 16 16 18 18 17 18 19 17 20 20 18 14 14 19 18 14 16 19 20 21 24 31 30 28 24 20
29 27 27 27 27 26 25 23 21 21 22 24 26 20 15 15 14 17 15 12 10 9 8 10 11 12 12 nan nan nan nan nan 11 9 10 13 14 13 12 12 12 12 11 10 10 11 12 12 12 10 10 10 11 11 12 14 16 17 18 18 20 21 19 15 14 19 19 20 23 20 15 14 18 19 14 19 21 20 20 22 26 30 29 26 21
27 27 27 28 29 27 26 25 23 21 23 24 26 30 27 21 23 20 18 16 13 10 9 10 11 13 15 16 16 15 15 15 13 nan nan 13 17 15 15 13 13 13 12 13 12 11 12 11 11 11 11 11 11 11 12 13 16 19 21 19 19 23 18 15 15 18 16 20 23 23 17 13 16 20 15 21 21 20 20 21 22 26 27 25 22
29 29 30 32 32 30 27 26 26 25 26 31 35 30 30 31 28 24 23 20 15 12 10 11 13 14 13 9 13 16 17 18 16 16 15 18 18 17 18 17 15 12 12 15 19 17 14 13 13 13 13 13 13 12 13 14 15 22 24 17 20 25 20 19 16 18 16 20 25 29 22 16 19 22 19 21 20 19 20 20 22 23 24 21 19
28 31 32 33 33 32 29 28 29 29 33 28 21 16 15 23 30 29 28 26 20 16 15 13 14 15 14 13 9 11 15 16 15 17 18 22 21 20 20 20 16 13 14 19 19 19 20 20 17 17 15 15 17 18 17 16 18 23 25 20 20 22 18 17 17 17 14 17 28 34 23 17 18 20 25 23 19 18 21 21 21 22 23 22 21
Wind_Direction
95 98 101 110 112 117 118 115 108 104 98 98 94 92 91 90 92 95 97 101 100 100 99 92 93 91 91 93 96 93 92 93 91 90 89 85 83 76 66 68 69 68 68 67 66 66 67 67 66 66 64 64 65 66 64 65 63 64 65 66 67 70 71 73 75 75 77 77 78 79 78 75 72 70 68 66 64 62 59 55 52 50 46 45 45
97 103 110 114 116 115 116 112 104 98 95 94 94 88 87 94 96 98 99 100 104 104 106 101 98 99 98 96 95 88 89 87 85 85 85 83 80 79 63 66 66 68 68 68 68 69 68 66 64 63 64 64 64 64 65 63 67 67 68 69 70 72 73 75 76 76 78 79 80 80 77 74 71 70 68 65 63 61 58 56 54 50 47 45 45
107 107 108 110 108 107 103 105 105 94 93 95 97 95 93 92 96 102 105 108 109 107 107 99 97 93 91 91 88 85 83 83 81 79 77 77 77 81 76 63 66 68 69 69 71 70 68 65 63 63 64 65 66 68 65 66 66 68 69 70 72 74 76 78 79 80 80 80 80 79 77 74 72 70 67 64 62 60 58 55 53 51 47 45 44
110 112 112 113 105 101 93 93 96 94 92 92 93 94 92 95 99 105 106 106 105 108 102 100 89 87 88 83 84 82 79 77 75 75 76 75 74 76 80 79 69 69 70 71 72 70 68 65 64 65 67 69 69 67 68 67 68 69 69 72 76 78 79 79 79 80 80 80 80 79 76 75 72 69 67 63 62 59 57 55 53 51 49 46 44
66 76 77 77 84 84 85 92 88 96 95 90 92 95 96 98 105 108 109 109 113 108 106 93 85 88 84 80 77 76 76 76 77 74 71 71 72 75 78 83 85 72 70 73 72 70 67 65 65 66 67 67 69 69 70 69 69 70 72 74 75 76 79 80 81 82 81 80 78 76 76 74 72 69 66 63 61 59 57 55 54 52 50 49 46
65 51 49 59 65 75 85 92 93 95 101 100 96 96 98 107 109 108 107 108 105 99 97 102 91 88 89 87 84 77 75 78 80 72 73 74 73 73 76 79 79 81 80 72 70 69 66 65 65 66 67 68 69 69 68 69 71 72 75 77 80 82 82 83 83 82 81 79 78 76 75 72 70 68 66 63 60 59 57 55 54 53 51 49 48
71 71 73 68 69 74 81 85 90 94 96 100 99 100 107 104 106 108 114 110 103 102 100 97 92 95 87 93 96 99 88 79 76 77 76 77 73 74 77 78 78 78 78 79 73 67 65 64 64 65 67 68 69 69 69 70 72 74 76 78 79 81 83 83 83 81 79 77 75 73 72 71 70 68 66 65 62 59 58 56 54 53 52 50 49
75 77 79 75 73 75 79 84 92 101 102 103 105 99 104 109 111 112 111 109 108 107 106 92 85 90 96 95 95 99 103 95 76 80 75 75 76 76 79 79 77 78 74 76 75 72 65 65 65 66 67 68 68 69 70 72 74 76 78 79 81 82 83 83 82 80 78 75 73 71 69 68 67 66 65 63 62 60 58 57 56 54 53 52 50
75 78 78 82 82 83 88 94 100 102 102 106 105 96 99 110 114 112 105 101 102 98 97 85 84 82 85 84 89 100 97 96 95 86 74 73 72 76 78 80 78 73 76 73 73 73 68 65 65 65 67 68 68 69 71 74 76 77 78 79 81 82 82 81 80 79 76 74 71 70 68 67 66 64 64 62 61 58 55 55 56 56 53 50 49
73 75 77 84 84 85 92 99 102 102 104 103 101 106 105 102 103 103 101 101 100 101 99 107 93 74 86 83 86 90 93 94 99 96 80 74 73 73 70 74 78 75 74 73 71 70 69 66 64 66 67 68 69 70 72 74 75 76 77 78 80 81 81 80 78 77 76 74 71 69 67 65 64 62 62 62 61 59 55 52 51 51 53 49 48
71 73 77 80 83 85 89 95 101 102 104 107 105 104 102 102 100 95 95 90 88 93 98 95 111 94 74 79 91 93 88 92 89 95 83 81 76 80 71 66 74 76 73 71 71 68 65 65 67 69 70 68 69 69 71 72 73 74 75 77 78 79 80 79 77 76 74 72 69 67 65 64 62 62 62 61 60 56 53 52 53 53 54 49 47
73 75 77 77 82 85 89 98 101 103 105 111 108 105 99 96 91 89 88 92 92 98 107 106 106 113 99 93 95 90 93 94 96 93 89 91 87 89 79 74 78 78 71 71 70 65 62 62 63 66 69 71 68 69 70 71 72 73 74 74 76 77 78 78 77 75 73 71 70 66 64 62 62 62 62 61 57 55 53 51 50 52 53 49 44
78 80 76 78 82 87 93 102 103 103 105 103 101 101 98 94 92 95 94 101 102 103 105 100 104 105 112 107 97 97 97 90 93 94 94 93 90 89 82 71 79 84 79 73 67 63 59 56 61 65 70 72 73 71 69 70 71 72 72 73 74 75 75 76 75 74 72 70 70 66 65 63 63 62 59 57 55 54 53 50 48 49 50 48 44
79 83 85 83 81 84 90 93 97 98 100 99 98 98 100 96 89 102 103 101 101 100 100 104 103 91 94 103 108 113 105 96 94 99 94 99 95 93 95 66 76 82 85 66 62 62 58 53 57 64 69 71 73 76 74 73 72 70 70 70 71 72 72 72 72 72 71 70 70 68 67 66 63 62 59 56 54 53 52 49 47 45 45 47 43
77 81 83 87 83 85 87 87 92 94 91 89 93 99 99 99 88 94 111 118 109 101 91 86 89 84 88 95 96 102 116 114 110 106 104 101 96 91 90 76 74 83 82 64 55 61 61 50 53 60 66 71 73 73 72 70 67 65 66 68 69 70 71 71 72 73 73 74 73 72 70 67 64 64 60 55 52 50 49 47 45 41 39 42 38
78 85 90 88 87 88 90 90 89 91 87 86 90 98 105 107 105 110 112 107 99 93 78 79 72 79 93 83 82 77 110 105 89 96 91 93 86 91 94 78 80 90 86 79 65 56 58 43 47 56 62 65 69 72 70 69 66 63 64 66 66 68 70 72 74 76 76 77 75 74 71 64 59 57 58 53 49 48 44 42 40 37 35 36 36
79 86 91 90 95 94 92 92 96 97 102 99 93 99 101 101 101 101 92 86 88 80 86 67 66 63 71 88 95 101 92 99 98 103 92 68 66 nan 80 68 83 81 84 88 73 63 59 54 46 46 60 64 68 67 68 71 70 66 64 63 63 64 67 69 71 77 78 78 77 72 64 58 54 52 52 50 46 41 36 32 30 30 28 23 15
78 85 87 93 95 97 97 97 98 98 100 100 99 109 108 99 97 92 86 82 76 80 81 78 71 73 75 70 79 77 89 100 117 120 126 112 nan 47 43 nan nan 68 85 85 74 61 53 52 51 50 61 68 72 76 79 81 66 59 50 59 60 60 63 65 68 74 75 74 71 64 59 50 46 45 43 41 36 29 27 21 19 14 9 6 6
74 83 85 92 93 94 94 95 96 94 99 98 96 94 98 95 100 90 86 85 92 86 70 71 81 80 83 91 82 85 73 101 112 121 125 107 97 69 68 nan 93 102 86 86 73 56 53 46 46 49 58 64 69 76 91 49 25 20 17 41 56 54 54 64 64 68 70 69 60 50 41 39 36 31 26 20 16 13 11 8 5 2 3 2 360
71 76 80 88 90 89 92 93 93 88 94 93 92 94 94 99 90 89 93 99 84 75 81 84 73 77 79 96 114 117 123 114 100 96 92 95 86 99 93 nan 96 88 84 82 80 51 44 51 40 50 54 61 69 53 17 9 12 14 20 20 36 41 51 51 59 59 58 55 33 23 23 23 18 8 5 356 358 357 357 358 357 358 359 358 356
62 66 73 76 82 83 88 97 92 85 88 89 94 91 87 82 82 90 90 92 86 75 77 77 78 79 78 89 100 109 122 120 109 109 98 97 83 70 nan nan nan 106 86 nan nan nan 39 36 40 41 47 53 29 14 342 350 8 7 5 13 17 27 39 49 54 55 29 1 358 2 4 2 355 347 343 342 344 345 349 352 354 355 355 356 352
62 61 64 66 73 79 84 88 91 93 92 87 89 84 85 73 71 72 75 82 81 74 72 73 71 73 65 63 81 99 122 121 122 115 105 94 89 89 76 nan nan 107 75 nan nan nan nan 28 36 42 49 28 359 349 342 343 348 351 6 7 12 4 30 41 39 31 350 346 350 351 347 346 340 337 336 338 339 341 345 350 353 354 352 350 346
75 65 47 48 64 79 80 83 91 96 98 86 95 88 87 66 68 65 68 60 68 77 75 70 75 78 81 68 65 64 65 86 99 113 88 97 130 108 99 97 nan 256 115 57 50 nan nan 359 12 23 15 3 350 339 334 330 349 351 352 360 5 348 8 21 8 348 349 344 346 343 340 336 333 333 335 336 338 340 344 348 351 350 347 343 341
107 93 51 44 54 72 87 90 91 97 91 86 89 99 85 70 64 60 60 58 60 68 68 77 81 78 80 74 73 71 76 73 69 59 92 83 45 73 109 112 100 nan 99 nan nan 94 87 12 7 4 10 355 350 335 330 331 328 340 337 351 353 340 349 1 352 344 347 340 342 339 332 330 329 329 332 334 337 340 343 347 347 345 341 339 339
116 87 94 52 56 66 87 85 96 101 105 104 112 101 63 54 32 28 59 49 54 52 75 71 63 61 74 77 75 92 94 85 85 70 89 77 115 91 87 107 105 133 140 nan 82 110 333 351 7 0 353 353 343 325 336 323 319 333 336 339 350 331 338 339 336 337 341 333 335 334 330 329 330 329 330 333 337 339 342 345 343 nan nan 337 340
110 92 73 74 43 54 61 77 94 107 116 107 122 126 155 23 351 10 47 55 53 44 59 91 110 80 56 82 75 58 84 112 83 nan 95 144 170 127 113 117 118 152 143 nan 130 nan 116 20 19 334 328 340 342 331 325 333 323 337 337 329 334 331 335 337 337 332 334 327 328 329 329 326 327 327 329 333 336 338 340 342 nan nan nan nan nan
123 108 84 119 26 8 15 36 65 102 118 144 133 132 162 191 188 124 358 15 31 10 79 120 124 121 131 102 102 175 131 149 154 176 191 206 181 160 181 179 155 184 179 157 159 208 328 25 349 308 329 322 334 333 327 326 331 333 329 318 318 332 334 337 336 331 327 323 324 326 326 325 324 325 328 332 335 336 337 nan nan nan nan nan nan
164 117 104 48 1 29 16 26 43 32 122 127 116 116 178 215 162 191 149 205 162 252 29 129 129 140 131 157 187 162 170 191 212 160 157 284 227 202 213 222 203 176 176 179 183 189 217 256 233 273 328 321 329 335 320 331 321 333 327 314 320 325 341 338 339 332 323 319 320 322 324 323 324 328 330 333 337 339 nan nan nan nan nan nan nan
183 154 191 80 332 352 35 13 12 326 331 65 115 151 228 222 214 185 144 165 308 268 183 161 166 175 178 156 155 158 149 201 188 232 200 238 240 216 221 239 245 228 190 188 191 207 207 225 256 245 278 309 331 332 309 314 315 315 312 316 322 327 341 343 345 338 323 320 319 321 323 324 326 329 331 333 337 nan 338 nan nan nan nan nan nan
239 212 222 218 168 304 345 297 341 320 329 324 334 239 258 226 244 300 343 321 306 304 283 208 182 180 181 183 148 164 168 185 143 203 243 247 229 222 216 205 229 228 215 206 187 206 215 208 253 255 238 270 299 317 303 313 328 310 307 315 324 329 338 344 347 342 328 324 324 324 326 328 329 329 330 336 339 340 338 335 nan nan nan nan nan
261 226 224 210 220 207 297 267 294 309 293 298 290 258 272 245 231 303 274 294 302 308 311 288 197 193 177 188 205 160 172 181 191 199 207 228 257 215 212 217 214 232 239 217 215 193 219 217 217 237 259 258 294 311 305 311 322 321 302 311 322 332 334 337 344 342 331 326 326 328 330 332 331 331 335 337 340 340 342 336 337 nan nan nan nan
252 245 250 251 231 231 234 246 284 277 274 271 293 269 265 258 234 259 251 275 282 297 306 312 321 212 177 184 196 205 207 212 200 220 227 192 238 227 223 216 225 229 231 227 228 169 185 213 224 197 254 238 238 290 306 307 319 335 297 313 319 321 321 327 340 343 334 330 328 331 334 335 335 337 337 339 340 346 343 339 339 nan nan nan nan
236 242 259 276 277 279 242 235 255 278 271 256 264 265 261 261 231 231 238 267 282 297 305 319 190 269 359 358 187 184 215 208 191 200 224 215 187 233 232 229 206 207 227 217 217 183 173 211 233 227 193 225 245 275 261 280 301 309 302 299 308 318 320 323 329 339 339 335 336 337 338 337 337 338 337 336 339 343 345 340 339 342 341 nan nan
234 238 263 255 282 286 280 272 253 263 285 284 253 262 264 256 242 222 228 245 257 291 319 358 77 102 195 316 239 201 222 185 181 188 196 213 225 233 255 254 233 210 231 236 227 223 182 196 207 210 211 240 244 258 261 276 288 303 315 306 310 312 314 315 322 329 338 336 337 340 340 340 340 340 338 338 339 343 343 341 340 342 344 nan nan
237 240 247 254 269 284 296 303 332 289 302 307 287 269 270 263 251 225 217 237 248 234 242 47 57 91 117 131 125 164 207 184 149 158 181 186 234 240 209 237 253 228 237 257 249 228 204 195 228 227 231 237 252 254 252 276 282 297 305 311 313 311 308 310 313 317 329 332 334 336 338 338 340 342 342 343 345 346 346 345 346 344 348 nan nan
248 241 249 256 254 265 288 299 330 333 326 327 326 287 288 277 259 240 220 218 228 232 230 184 123 128 121 121 120 129 143 137 131 122 131 164 163 235 259 248 254 231 228 250 260 260 250 241 229 253 249 246 251 256 264 257 255 261 286 300 309 316 320 311 309 308 318 326 327 329 332 334 338 342 344 346 347 347 348 347 352 352 352 351 nan
246 251 250 251 249 252 271 293 309 340 333 343 347 337 282 273 274 260 237 226 224 215 212 210 173 146 109 114 114 127 144 119 125 123 94 103 112 137 159 226 272 267 258 265 265 272 265 252 236 249 261 261 270 264 265 260 253 261 270 289 299 308 312 325 305 303 310 324 321 326 330 336 342 346 346 347 346 346 346 348 355 2 357 354 nan
236 249 260 254 255 254 251 267 282 311 325 339 355 2 332 274 268 259 253 239 230 228 219 216 201 195 167 130 122 125 135 123 130 137 140 109 117 109 111 121 133 170 168 187 257 271 281 285 279 223 250 262 248 265 263 281 283 282 291 292 289 298 302 303 311 299 305 315 315 325 335 342 349 351 348 347 346 344 345 348 355 2 1 358 354
235 240 251 258 259 260 252 254 267 273 297 315 334 347 338 300 283 271 262 253 237 228 232 232 223 211 204 197 191 184 167 168 171 180 185 172 150 129 104 101 122 137 140 145 155 159 184 209 225 272 246 248 275 249 264 291 303 314 319 307 305 306 305 307 315 313 315 325 334 340 339 340 342 343 347 349 347 344 343 348 353 359 2 1 357
246 242 244 258 259 264 266 263 262 269 277 282 286 303 313 316 299 283 283 263 250 238 227 232 231 227 225 220 215 216 207 200 210 207 227 213 216 195 187 213 194 186 174 179 197 220 217 220 238 226 254 262 258 280 279 275 281 285 311 326 333 320 319 312 316 322 320 323 332 334 331 333 339 342 343 346 348 344 342 346 352 354 1 0 356
257 252 247 258 265 263 269 270 268 266 278 283 280 283 290 299 297 291 288 278 265 254 244 240 238 232 229 229 229 230 238 261 348 295 270 269 243 232 219 237 236 239 226 217 222 240 247 258 248 256 261 265 275 276 269 281 306 345 329 307 316 321 321 310 311 315 317 325 335 329 330 331 331 333 333 340 342 337 339 345 346 356 1 359 357
229 238 258 266 269 279 274 273 272 269 271 271 288 326 313 287 284 287 271 268 262 259 257 247 240 243 242 240 239 255 293 347 342 350 352 351 332 278 256 255 256 256 253 249 250 254 254 249 251 258 253 261 271 282 287 297 310 291 268 290 303 306 290 299 301 310 320 321 321 331 334 323 327 326 333 350 340 333 332 337 345 347 354 356 355
239 242 232 226 nan 266 278 278 282 278 278 278 315 318 326 331 298 272 275 261 251 254 257 258 250 246 239 244 246 242 228 229 254 315 333 343 343 342 322 297 283 280 269 270 264 266 267 264 255 256 263 254 266 286 294 293 283 295 290 283 296 292 298 299 302 294 305 319 325 322 329 326 326 333 341 353 345 333 335 343 351 355 356 353 355
244 242 244 241 227 218 229 264 281 280 274 290 309 312 316 320 311 280 265 262 257 249 246 251 254 251 246 244 243 247 248 248 238 253 280 327 340 346 349 329 317 318 309 293 282 266 263 264 264 274 270 281 284 283 283 281 291 281 291 290 291 295 298 300 298 302 306 312 328 319 329 321 336 336 339 353 347 338 342 348 351 355 355 356 355
247 247 249 247 239 232 218 217 249 277 272 284 296 306 308 309 314 298 251 259 259 253 248 246 247 250 250 246 237 239 241 239 244 244 247 249 278 359 4 6 350 326 317 321 310 293 279 278 281 277 286 278 279 283 287 287 288 293 284 285 292 299 302 302 309 304 305 307 317 321 323 320 330 341 347 352 344 338 342 347 351 353 354 355 354
241 242 242 243 245 243 237 225 220 237 272 288 300 300 301 306 308 296 260 258 254 252 252 247 244 249 252 253 248 242 245 246 247 nan 243 251 251 248 243 240 245 257 303 310 297 295 283 284 286 289 286 283 299 293 294 289 292 303 301 303 296 294 296 307 308 309 306 301 316 312 307 313 321 333 343 345 338 335 337 344 348 350 350 352 351
237 240 244 247 247 244 238 232 225 223 239 283 299 303 302 303 305 298 277 266 253 249 250 248 nan nan nan nan nan nan 251 253 255 259 nan nan 248 247 248 251 256 257 260 264 270 274 275 273 281 291 290 289 296 298 294 295 304 304 302 303 304 299 296 293 290 298 299 303 305 301 309 307 306 315 334 334 328 332 324 332 342 345 346 348 348
240 242 241 240 238 236 235 232 229 224 222 224 243 253 264 276 290 281 278 276 269 260 255 253 251 248 248 nan nan nan nan nan 259 277 270 258 255 254 252 247 248 254 259 273 291 291 289 287 287 292 292 299 307 305 304 301 295 290 286 282 280 281 284 292 303 294 300 303 307 305 299 300 303 311 320 311 315 324 316 319 335 339 341 344 346
239 243 246 246 244 241 237 237 239 233 228 220 218 244 256 255 253 254 256 262 268 269 267 263 260 256 253 253 253 251 253 255 264 nan nan 271 259 263 261 254 250 249 253 261 282 302 305 308 312 316 319 319 322 327 324 320 305 292 282 279 286 286 293 300 297 293 305 303 298 304 305 303 301 303 310 304 312 314 317 319 318 331 333 337 341
239 240 241 242 242 241 237 236 240 241 239 232 234 241 257 271 277 270 265 260 255 267 273 270 264 260 261 274 264 254 251 251 263 275 279 274 265 266 267 266 261 257 257 262 263 273 300 311 316 320 323 323 321 317 312 312 310 291 290 298 293 288 298 302 301 301 301 299 298 298 299 308 295 297 299 289 293 298 306 306 310 312 318 324 332
238 240 240 241 242 242 240 236 239 247 249 250 260 261 264 274 274 270 271 271 270 270 268 267 267 262 260 260 268 264 256 252 257 266 274 274 268 269 270 269 272 279 280 275 274 273 273 275 277 281 280 291 297 299 304 319 313 299 296 301 294 296 302 303 301 293 294 301 295 295 301 300 298 295 297 288 289 295 299 306 306 306 308 309 311